"Pseudo-MPEC" for P117MUf

Created 2020 Oct 19 19:07:17 UT using Find_Orb

Click here for an explanation of pseudo-MPECs

 
 Astrometry: 
     P117MUf  C2020 10 14*DK^`FXd1m@=Cj,8bND!#i8f?77Astrometry7Yv#redacted;+4F51
     P117MUf  C2020 10 14Qm(:Iclick379?OVHs1%bhereJk\$)s;byk@_^jM@-AC@Y7`bGb6F51
     P117MUf  C2020 10 14XgR\Y4`b.V$aGDfor'\k.WxPc7X%8@;q.HSg\:)DJexplanationF51

Station data:
(F51) Pan-STARRS 1, Haleakala  (N20.707235 W156.255910)  US/Hawaii.
   Observers N. Primak, A. Schultz, S. Watters, J. Thiel, T. Goggia. Measurer
   PS1 Science Consortium. 1.8-m Ritchey-Chrétien + CCD.

Orbital elements:  P117MUf
   Perihelion 2020 Dec 9.772917 +/- 34.7 TT = 18:33:00 (JD 2459193.272917)
Epoch 2020 Oct 15.0 TT = JDT 2459137.5   Earth MOID: 0.0127   AutoNEOCP
M 310.58974486 +/- 24               (J2000 ecliptic)
n   0.88591842 +/- 0.441            Peri.   46.69948 +/- 60
a   1.07367677 +/- 0.357            Node    32.87136 +/- 47
e   0.0833492 +/- 0.252             Incl.    4.24676 +/- 12
P   1.11/406.35d           H 28.4   G  0.15   U 12.2  SR
q 0.98418660 +/- 0.25    Q 1.16316695 +/- 35.8
From 3 observations 2020 Oct. 14 (33.6 min); mean residual 0".11
Residuals in arcseconds: 
201014 F51  .01-  .11+    201014 F51  .02+  .22-    201014 F51  .01-  .11+    

Ephemerides (geocentric):
Date (UTC) HH   RA              Dec         delta   r     elong  mag " sig PA
---- -- -- --  -------------   -----------  ------ ------ -----  --- ---- ---
2020 10 19 19  03 47 31.993   +00 00 06.86  .02252 1.0147 146.3 21.6  72d 173
2020 10 19 20  03 47 41.445   +00 06 58.96  .02247 1.0146 146.4 21.6  73d 173
2020 10 19 21  03 47 50.931   +00 13 52.91  .02242 1.0146 146.4 21.6  73d 173
2020 10 19 22  03 48 00.449   +00 20 48.74  .02237 1.0145 146.4 21.6  73d 173
2020 10 19 23  03 48 10.000   +00 27 46.43  .02232 1.0145 146.5 21.6  73d 173
2020 10 20 00  03 48 19.585   +00 34 46.01  .02228 1.0144 146.5 21.6  73d 173
2020 10 20 01  03 48 29.203   +00 41 47.47  .02223 1.0144 146.5 21.5  73d 173
2020 10 20 02  03 48 38.856   +00 48 50.83  .02218 1.0143 146.6 21.5  73d 173
2020 10 20 03  03 48 48.542   +00 55 56.09  .02213 1.0143 146.6 21.5  73d 173
2020 10 20 04  03 48 58.262   +01 03 03.25  .02208 1.0143 146.6 21.5  73d 173
2020 10 20 05  03 49 08.017   +01 10 12.34  .02203 1.0142 146.7 21.5  73d 173
2020 10 20 06  03 49 17.807   +01 17 23.35  .02199 1.0142 146.7 21.5  73d 173
2020 10 20 07  03 49 27.632   +01 24 36.28  .02194 1.0141 146.7 21.5  73d 173
2020 10 20 08  03 49 37.492   +01 31 51.16  .02189 1.0141 146.8 21.5  73d 173
2020 10 20 09  03 49 47.387   +01 39 07.98  .02184 1.0140 146.8 21.5  73d 173
2020 10 20 10  03 49 57.319   +01 46 26.76  .02180 1.0140 146.8 21.5  74d 173
2020 10 20 11  03 50 07.286   +01 53 47.49  .02175 1.0139 146.8 21.5  74d 173
2020 10 20 12  03 50 17.290   +02 01 10.19  .02170 1.0139 146.9 21.5  74d 173
2020 10 20 13  03 50 27.330   +02 08 34.86  .02165 1.0138 146.9 21.5  74d 173
2020 10 20 14  03 50 37.407   +02 16 01.52  .02161 1.0138 146.9 21.5  74d 173
2020 10 20 15  03 50 47.521   +02 23 30.16  .02156 1.0137 147.0 21.5  75d 173
2020 10 20 16  03 50 57.672   +02 31 00.80  .02151 1.0137 147.0 21.5  75d 173
2020 10 20 17  03 51 07.861   +02 38 33.44  .02147 1.0137 147.0 21.5  75d 173
2020 10 20 18  03 51 18.088   +02 46 08.08  .02142 1.0136 147.0 21.4  75d 173
2020 10 20 19  03 51 28.353   +02 53 44.74  .02137 1.0136 147.1 21.4  76d 173
2020 10 20 20  03 51 38.656   +03 01 23.43  .02133 1.0135 147.1 21.4  76d 173
2020 10 20 21  03 51 48.998   +03 09 04.14  .02128 1.0135 147.1 21.4  76d 173
2020 10 20 22  03 51 59.379   +03 16 46.89  .02124 1.0134 147.1 21.4  76d 173
2020 10 20 23  03 52 09.799   +03 24 31.68  .02119 1.0134 147.2 21.4  76d 173
2020 10 21 00  03 52 20.259   +03 32 18.52  .02115 1.0133 147.2 21.4  76d 173
2020 10 21 01  03 52 30.758   +03 40 07.42  .02110 1.0133 147.2 21.4  76d 173
2020 10 21 02  03 52 41.298   +03 47 58.38  .02105 1.0132 147.2 21.4  76d 173
2020 10 21 03  03 52 51.877   +03 55 51.41  .02101 1.0132 147.3 21.4  76d 173
2020 10 21 04  03 53 02.498   +04 03 46.51  .02096 1.0132 147.3 21.4  76d 173
2020 10 21 05  03 53 13.159   +04 11 43.70  .02092 1.0131 147.3 21.4  76d 173
2020 10 21 06  03 53 23.861   +04 19 42.97  .02087 1.0131 147.3 21.4  76d 173
2020 10 21 07  03 53 34.605   +04 27 44.34  .02083 1.0130 147.4 21.4  76d 173
2020 10 21 08  03 53 45.391   +04 35 47.81  .02078 1.0130 147.4 21.4  76d 173
2020 10 21 09  03 53 56.219   +04 43 53.38  .02074 1.0129 147.4 21.4  76d 173
2020 10 21 10  03 54 07.089   +04 52 01.07  .02070 1.0129 147.4 21.4  76d 173
2020 10 21 11  03 54 18.002   +05 00 10.88  .02065 1.0128 147.5 21.4  76d 173
2020 10 21 12  03 54 28.958   +05 08 22.82  .02061 1.0128 147.5 21.4  76d 173
2020 10 21 13  03 54 39.957   +05 16 36.88  .02056 1.0127 147.5 21.3  77d 173
2020 10 21 14  03 54 51.000   +05 24 53.09  .02052 1.0127 147.5 21.3  77d 173
2020 10 21 15  03 55 02.087   +05 33 11.43  .02048 1.0127 147.5 21.3  77d 174
2020 10 21 16  03 55 13.218   +05 41 31.93  .02043 1.0126 147.6 21.3  77d 174
2020 10 21 17  03 55 24.394   +05 49 54.58  .02039 1.0126 147.6 21.3  77d 174
2020 10 21 18  03 55 35.614   +05 58 19.39  .02035 1.0125 147.6 21.3  77d 174